TimeEDT,TemperatureF,Dew PointF,Humidity,Sea Level PressureIn,VisibilityMPH,Wind Direction,Wind SpeedMPH,Gust SpeedMPH,PrecipitationIn,Events,Conditions,WindDirDegrees,DateUTC
12:52 AM,45.0,30.9,58,30.19,10.0,NNW,3.5,-,N/A,,Clear,340,2014-05-08 04:52:00
1:52 AM,43.0,30.0,60,30.18,10.0,WNW,4.6,-,N/A,,Clear,300,2014-05-08 05:52:00
2:52 AM,41.0,30.9,67,30.19,10.0,Calm,Calm,-,N/A,,Clear,0,2014-05-08 06:52:00
3:52 AM,42.1,30.9,65,30.19,10.0,NNW,3.5,-,N/A,,Clear,340,2014-05-08 07:52:00
4:52 AM,42.1,30.9,65,30.19,10.0,WNW,4.6,-,N/A,,Clear,300,2014-05-08 08:52:00
5:52 AM,42.1,30.9,65,30.19,10.0,NW,4.6,-,N/A,,Clear,320,2014-05-08 09:52:00
6:52 AM,46.0,34.0,63,30.20,10.0,NNW,3.5,-,N/A,,Clear,340,2014-05-08 10:52:00
7:52 AM,51.1,35.1,54,30.19,10.0,Calm,Calm,-,N/A,,Clear,0,2014-05-08 11:52:00
8:52 AM,57.9,26.1,30,30.19,10.0,ENE,3.5,-,N/A,,Clear,60,2014-05-08 12:52:00
9:52 AM,61.0,30.0,31,30.19,10.0,Variable,4.6,-,N/A,,Clear,0,2014-05-08 13:52:00
11:52 AM,68.0,32.0,26,30.16,10.0,South,6.9,-,N/A,,Clear,190,2014-05-08 15:52:00
12:52 PM,70.0,33.1,26,30.14,10.0,Calm,Calm,-,N/A,,Clear,0,2014-05-08 16:52:00
2:52 PM,72.0,39.9,31,30.09,10.0,SE,12.7,17.3,N/A,,Clear,130,2014-05-08 18:52:00
3:52 PM,71.1,45.0,39,30.06,10.0,South,5.8,-,N/A,,Clear,170,2014-05-08 19:52:00
5:52 PM,68.0,50.0,52,30.07,10.0,SSE,12.7,-,N/A,,Scattered Clouds,160,2014-05-08 21:52:00
6:52 PM,68.0,50.0,52,30.09,10.0,South,9.2,-,N/A,,Clear,170,2014-05-08 22:52:00
8:52 PM,61.0,51.1,70,30.15,10.0,SSW,4.6,-,N/A,,Clear,200,2014-05-09 00:52:00
9:52 PM,59.0,51.1,75,30.17,10.0,Calm,Calm,-,N/A,,Clear,0,2014-05-09 01:52:00
10:52 PM,57.0,51.1,81,30.16,10.0,Calm,Calm,-,N/A,,Clear,0,2014-05-09 02:52:00
11:52 PM,57.0,51.1,81,30.19,10.0,NNW,3.5,-,N/A,,Clear,330,2014-05-09 03:52:00